Content
SEND FEEDBACK

Daily
Averages
Monthly
Summary
United Kingdom

BRIZE NORTON, ENGLAND


Home > Europe > United Kingdom > England
Elevation: 299 feet     Latitude: 51 45N     Longitude: 001 34W

WEATHER
 
SELECT A DAY
Number of Records: 183,453;   Date Range: 7/1/96 - 9/18/14
 
SHARE

PRINT THIS DATA

[ ← Previous Day ]
WEATHER ALMANAC - OCTOBER 5, 2013
[ Next Day → ]
[ °C ]   °F
Weather ElementAverageHighLow
Temperature58 °F64.4 °F (11:50 am)48.2 °F (11:50 pm)
Dewpoint53 °F57.2 °F (9:50 am)46.4 °F (11:50 pm)
Humidity83.6 %100 % (12:50 am)60 % (12:50 pm)
Barometer30.13 in30.26 in (9:50 pm)29.95 in (12:50 am)
Wind Speed3.6 mph6.9 mph (11:50 am)
Weather ElementAverage
Visibility8 mi
Wind DirectionW (269 °)

Weather ElementTotal
Precipitation---
Heating Degree Days8.7 (Base 65)
Growing Degree Days6.3 (Base 50)
Averaged from 30 records on October 5, 2013
WEATHER CONDITIONS BREAKOUT
WIND DIRECTION BREAKOUT
WEATHER BY HOUR - OCTOBER 5, 2013
[ °C ]   °F
Local TimeTemperatureDewpointHumidityBarometerVisibilityWind DirectionWind SpeedGust SpeedPrecipitationEventsConditions
12:50 AM55.4 °F55.4 °F100 %29.95 in6.2 miWSW (240°)3.5 mphMostly Cloudy
1:50 AM57.2 °F55.4 °F94 %29.98 in5.0 miSW (230°)4.6 mphMostly Cloudy
2:50 AM57.2 °F55.4 °F94 %29.98 in4.3 miSW (230°)1.2 mphHaze
3:50 AM56.0 °F55.0 °F97 %30.00 in4.0 miWSW (240°)2.3 mphMist
3:50 AM55.4 °F55.4 °F100 %29.98 in3.7 miWSW (240°)2.3 mphMostly Cloudy
4:50 AM57.2 °F55.4 °F94 %30.01 in4.3 miSW (230°)2.3 mphMostly Cloudy
5:50 AM57.2 °F55.4 °F94 %30.01 in3.7 miSW (220°)1.2 mphMostly Cloudy
6:50 AM55.4 °F55.4 °F100 %30.04 in3.7 miWest (280°)1.2 mphMostly Cloudy
7:50 AM57.2 °F55.4 °F94 %30.06 in6.2 miSW (220°)2.3 mphMostly Cloudy
8:50 AM57.2 °F55.4 °F94 %30.09 in6.2 miWSW (240°)3.5 mphMostly Cloudy
9:50 AM59.0 °F56.0 °F88 %30.12 in9.0 miWSW (250°)3.5 mphMostly Cloudy
9:50 AM59.0 °F57.2 °F94 %30.12 in6.2 miWSW (250°)3.5 mphMostly Cloudy
10:50 AM60.8 °F55.4 °F82 %30.12 in6.2 miWNW (300°)5.8 mphMostly Cloudy
11:50 AM64.4 °F55.4 °F73 %30.12 in6.2 miNNW (330°)6.9 mphMostly Cloudy
12:50 PM64.4 °F53.6 °F68 %30.15 in6.2 miWNW (290°)3.5 mphScattered Clouds
12:50 PM64.0 °F53.0 °F60 %30.16 in22.0 miWNW (290°)3.5 mphMostly Cloudy
1:50 PM64.4 °F51.8 °F64 %30.15 in6.2 miWNW (300°)6.9 mphMostly Cloudy
2:50 PM64.4 °F53.6 °F68 %30.18 in6.2 miWest (280°)5.8 mphMostly Cloudy
3:50 PM62.0 °F53.0 °F66 %30.19 in25.0 miNW (310°)6.9 mphMostly Cloudy
3:50 PM62.6 °F53.6 °F72 %30.18 in6.2 miNW (310°)6.9 mphMostly Cloudy
4:50 PM64.4 °F51.8 °F64 %30.18 inWNW (290°)5.8 mphClear
5:50 PM60.8 °F51.8 °F72 %30.21 in6.2 miWNW (300°)4.6 mphPartly Cloudy
6:50 PM59.0 °F50.0 °F72 %30.21 in6.2 miWNW (300°)3.5 mphScattered Clouds
6:50 PM58.0 °F50.0 °F68 %30.23 in25.0 miWNW (300°)3.5 mphScattered Clouds
7:50 PM55.4 °F50.0 °F82 %30.21 in6.2 miWest (270°)2.3 mphScattered Clouds
8:50 PM51.8 °F48.2 °F88 %30.24 in6.2 miWSW (250°)1.2 mphScattered Clouds
9:50 PM51.0 °F48.0 °F86 %30.26 in16.0 miWest (280°)2.3 mphScattered Clouds
9:50 PM50.0 °F48.2 °F94 %30.24 in6.2 miWest (280°)2.3 mphPartly Cloudy
10:50 PM50.0 °F48.2 °F94 %30.24 in6.2 miWSW (250°)3.5 mphPartly Cloudy
11:50 PM48.2 °F46.4 °F93 %30.24 in6.2 miWest (270°)1.2 mphPartly Cloudy
Hourly data recorded from EGVN, located miles away from Brize Norton, England







STORIES FROM OUR PARTNERS